#timestamp,LO_Frequency,Hit 
1504540815.8,286047001.3,N
1504540835.6,286047001.0,P
1504540855.4,286046997.5,N
1504540875.3,286046997.0,N
1504540895.1,286046999.3,N
1504540896.0,286046999.3,N
1504540915.8,286046997.2,N
1504540935.7,286046997.9,N
1504540955.5,286046997.4,N
1504540975.3,286046995.6,N
1504540995.2,286046995.7,N
1504541015.0,286046993.6,N
1504541015.9,286046993.6,N
1504541035.7,286046993.3,N
1504541055.6,286046993.9,N
1504541075.4,286046991.8,N
1504541095.2,286046994.7,N
1504541115.1,286046993.9,N
1504541116.0,286046993.9,N
1504541135.8,286046993.9,N
1504541155.7,286046992.8,N
1504541175.5,286046994.7,P
1504541195.3,286046996.8,P
1504541215.2,286046998.8,N
1504541235.0,286046997.9,N
1504541235.9,286046997.9,N
1504541255.7,286046997.1,N
1504541275.6,286046993.8,P
1504541295.4,286046998.2,N
1504541315.2,286047000.2,N
1504541335.1,286047000.9,N
1504541336.0,286047000.9,N
1504541355.8,286046999.1,N
1504541375.7,286046997.7,N
1504541395.5,286046999.2,N
1504541415.3,286046998.9,P
1504541435.2,286046998.7,P
1504541455.0,286046999.1,P
1504541455.9,286046999.1,P
1504541475.7,286047000.9,P
1504541495.6,286047001.4,N
1504541515.4,286047001.4,N
1504541535.2,286047001.7,N
1504541555.1,286047001.6,N
1504541556.0,286047001.6,N
1504541575.8,286047003.6,P
1504541595.7,286047002.7,N
1504541615.5,286047002.3,N
1504541635.3,286047002.0,N
1504541655.2,286047003.5,P
1504541675.0,286047002.3,P
1504541675.9,286047002.3,P
1504541695.8,286047002.8,P
1504541715.6,286046999.0,P
1504541735.4,286046996.5,N
1504541755.3,286046999.4,N
1504541775.1,286046998.1,N
1504541776.0,286046998.1,N
1504541795.8,286047000.7,N
1504541815.7,286046999.8,N
1504541835.5,286047002.3,N
1504541855.3,286047002.3,N
1504541875.2,286047002.4,N
1504541895.0,286047000.9,N
1504541895.9,286047000.9,N
1504541915.7,286047001.1,N
1504541935.6,286046998.6,N
1504541955.4,286046999.5,N
1504541975.2,286046998.7,N
1504541995.1,286046998.4,N
1504541996.0,286046998.4,N
1504542015.8,286047000.3,N
1504542035.7,286047000.1,N
1504542055.5,286047004.3,N
1504542075.3,286047004.1,N
1504542095.2,286047004.9,N
1504542115.9,286047005.5,N
1504542135.7,286047003.1,N
1504542155.6,286047005.4,N
1504542175.4,286047006.7,N
1504542195.2,286047007.1,N
1504542215.1,286047004.7,N
1504542216.0,286047004.7,N
1504542235.8,286047005.5,N
1504542255.6,286047003.7,N
1504542275.5,286047003.8,N
1504542295.3,286047008.7,P
1504542315.2,286047007.3,N
1504542335.9,286047007.4,N
1504542355.7,286047004.9,N
1504542375.6,286047003.7,N
1504542395.4,286047003.1,N
1504542415.2,286047004.8,N
1504542435.1,286047006.9,P
1504542436.0,286047006.9,P
1504542455.8,286047002.3,N
1504542475.6,286046999.7,N
1504542495.5,286047000.9,N
1504542515.3,286047003.5,N
1504542535.2,286047001.8,N
1504542555.9,286047000.2,N
1504542575.7,286047000.6,N
1504542595.6,286046999.7,N
1504542615.4,286047005.8,N
1504542635.2,286047003.4,N
1504542655.1,286047002.0,N
1504542656.0,286047002.0,N
1504542675.8,286047004.1,N
1504542695.6,286047002.9,N
1504542715.5,286047005.0,N
1504542735.3,286047004.2,N
1504542755.1,286047003.8,N
1504542775.9,286047004.8,N
1504542795.7,286047003.8,N
1504542815.6,286047004.4,N
1504542835.4,286047007.2,P
1504542855.2,286047001.8,N
1504542875.1,286047000.6,N
1504542876.0,286047000.6,N
1504542895.8,286047000.9,N
1504542915.6,286047000.4,N
1504542935.5,286046999.7,N
1504542955.3,286047003.9,N
1504542975.1,286047004.4,N
1504542995.9,286047003.7,N
1504543015.7,286047001.3,N
1504543035.5,286047000.4,N
1504543055.4,286047000.9,N
1504543075.2,286047002.6,N
1504543095.0,286047001.2,N
1504543096.0,286047001.2,N
1504543115.8,286046999.0,N
1504543135.6,286046999.6,N
1504543155.5,286046999.0,N
1504543175.3,286046998.8,N
1504543195.1,286046998.7,N
1504543215.9,286046998.7,N
1504543235.7,286047000.8,N
1504543255.5,286046998.7,N
1504543275.4,286046998.9,N
1504543295.2,286047001.0,N
1504543315.0,286047000.9,N
1504543315.9,286047000.9,N
1504543335.8,286047000.8,N
1504543355.6,286046998.7,P
1504543375.5,286047001.0,N
1504543395.3,286047000.7,N
1504543415.1,286046998.4,N
1504543435.9,286047000.8,N
1504543455.7,286046999.0,N
1504543475.5,286046999.4,N
1504543495.4,286046996.6,P
1504543515.2,286046999.5,N
1504543535.0,286047001.0,N
1504543535.9,286047001.0,N
1504543555.8,286046999.9,N
1504543575.6,286047002.8,N
1504543595.4,286047000.1,N
1504543615.3,286047002.7,N
1504543635.1,286047000.2,N
1504543655.9,286047001.8,N
1504543675.7,286047003.4,N
1504543695.5,286047005.7,P
1504543715.4,286047002.6,N
1504543735.2,286047002.4,N
1504543755.0,286047002.5,N
1504543755.9,286047002.5,N
1504543775.8,286047002.6,N
1504543795.6,286047000.6,N
1504543815.4,286047001.0,N
1504543835.3,286047000.9,N
1504543855.1,286046999.3,N
1504543875.8,286046998.2,N
1504543895.7,286046999.9,N
1504543915.5,286047002.8,N
1504543935.4,286047004.4,N
1504543955.2,286047001.6,N
1504543975.0,286047003.1,N
1504543975.9,286047003.1,N
1504543995.8,286047005.4,P
1504544015.6,286047003.7,N
1504544035.4,286047004.1,N
1504544055.3,286047005.5,P
1504544075.1,286046999.3,N
1504544095.8,286046998.4,N
1504544115.7,286046996.5,N
1504544135.5,286046998.9,N
1504544155.4,286046999.5,N
1504544175.2,286046999.0,N
1504544195.0,286046999.1,N
1504544195.9,286046999.1,N
1504544215.8,286046999.6,N
1504544235.6,286046996.7,N
1504544255.4,286046996.5,N
1504544275.3,286046999.5,N
1504544295.1,286046999.4,N
1504544296.0,286046999.4,N
1504544315.8,286046997.3,N
1504544335.7,286046997.5,N
1504544355.5,286046999.1,N
1504544375.3,286046998.5,N
1504544395.2,286046999.0,N
